User: anonymous   Login
Location: Oak Glen
(34.0495°N, 116.9470°E)
Time: 22:09:19
(UTC-07:00)
Language:

Tiangong 2 - Orbit

View from above orbital plane
View from above orbital plane
View from above satellite
View from above satellite

Ground track
Ground track

The orbit data is extracted from the following two-line orbital elements,

1 41765U 16057A   17292.63706963  .00005363  00000-0  71091-4 0  9992
2 41765  42.7843 335.5653 0002777   2.0088 141.9366 15.59228912 62400
Epoch (UTC): 19 October 2017 15:17:22
Eccentricity: 0.0002777
inclination: 42.7843°
perigee height: 388 km
apogee height: 392 km
right ascension of ascending node: 335.5653°
argument of perigee: 2.0088°
revolutions per day: 15.59228912
mean anomaly at epoch: 141.9366°
orbit number at epoch: 6240

The dashed part of the orbit path shows where the satellite is in the earth's shadow,  

DLR